This demonstration page uses our WeatherBlox Daily Observations layout. Learn more.

Left ArrowRight Arrow

Hourly Observations for August 13, 2019

Temp ( °F °C ) Dew Point ( °F °C ) Humidity (%) Winds ( mph kmh ) Pressure ( in mb ) Visibility ( mi km ) Precip ( " mm )
12:59 am 00:59 Partly Cloudy 77 25 69 20.6 77 77 S 10 17 29.96 1015 10 16 0.00 0.00
1:59 am 01:59 Mostly Cloudy 76 24.4 70 21.1 82 82 S 13 20 29.95 1014 10 16 0.00 0.00
2:59 am 02:59 Mostly Cloudy 76 24.4 70 21.1 82 82 SSW 9 15 29.93 1014 10 16 0.00 0.00
3:59 am 03:59 Mostly Cloudy 76 24.4 71 21.7 85 85 SSW 9 15 29.92 1013 10 16 0.00 0.00
4:59 am 04:59 Partly Cloudy 76 24.4 71 21.7 85 85 SSW 10 17 29.91 1013 10 16 0.00 0.00
5:59 am 05:59 Mostly Cloudy 75 23.9 71 21.7 88 88 S 10 17 29.92 1013 10 16 0.00 0.00
6:59 am 06:59 Mostly Cloudy 76 24.4 71 21.7 85 85 SW 9 15 29.92 1013 9 14 0.00 0.00
7:59 am 07:59 Mostly Cloudy 78 25.6 72 22.2 82 82 SW 13 20 29.93 1013 10 16 0.00 0.00
8:59 am 08:59 Mostly Cloudy 80 26.7 73 22.8 79 79 SW 14 22 29.92 1013 10 16 0.00 0.00
9:59 am 09:59 Mostly Cloudy 82 27.8 74 23.3 77 77 SSW 12 19 29.91 1013 10 16 0.00 0.00
10:59 am 10:59 Mostly Cloudy 85 29.4 73 22.8 68 68 SW 15 24 29.90 1013 10 16 0.00 0.00
11:59 am 11:59 Mostly Cloudy 87 30.6 73 22.8 63 63 SW 15 24 29.89 1012 10 16 0.00 0.00
12:59 pm 12:59 Mostly Cloudy 85 29.4 73 22.8 68 68 SW 14 22 29.88 1012 10 16 0.00 0.00
1:59 pm 13:59 Cloudy with Light Rain 85 29.4 75 23.9 72 72 SW 9 15 29.85 1011 10 16 0.00 0.00
2:59 pm 14:59 Cloudy 87 30.6 75 23.9 67 67 SSW 16 26 29.82 1010 10 16 0.00 0.00
3:59 pm 15:59 Mostly Cloudy 90 32.2 76 24.4 63 63 SW 18 30 29.80 1009 9 14 0.00 0.00
4:59 pm 16:59 Mostly Cloudy 88 31.1 74 23.3 63 63 SSW 18 30 29.80 1009 9 14 0.00 0.00
5:08 pm 17:08 Mostly Cloudy with Thunderstorms 88 31.1 75 23.9 66 66 SSW 18 30 29.79 1009 10 16 0.00 0.00
5:59 pm 17:59 Mostly Cloudy with Thunderstorms 87 30.6 73 22.8 63 63 SSW 18 30 29.80 1009 9 14 0.00 0.00
6:59 pm 18:59 Cloudy with Thunderstorms 87 30.6 72 22.2 61 61 SSW 12 19 29.80 1009 10 16 0.00 0.00
7:59 pm 19:59 Cloudy with Thunderstorms 78 25.6 76 24.4 93 93 SSW 7 11 29.82 1010 4 6 0.08 2.03
8:31 pm 20:31 Mostly Cloudy with Light Rain 79 26.1 76 24.4 90 90 S 7 11 29.80 1009 8 13 0.05 1.27
8:59 pm 20:59 Mostly Cloudy 81 27.2 75 23.9 82 82 SSW 14 22 29.81 1010 9 14 0.07 1.78
9:59 pm 21:59 Mostly Cloudy 78 25.6 72 22.2 82 82 WSW 12 19 29.80 1009 10 16 0.00 0.00
10:59 pm 22:59 Mostly Cloudy 78 25.6 70 21.1 76 76 WSW 12 19 29.82 1010 10 16 0.00 0.00
11:59 pm 23:59 Mostly Cloudy 78 25.6 70 21.1 76 76 WSW 13 20 29.82 1010 10 16 0.00 0.00

Powered by AerisWeather